Regional Weather Roundup
Issued by NWS Newport/Morehead, NC

Current Version | Previous Version | Text Only | Print | Product List | Glossary Off
Versions: 1 2 3 4 5 6 7 8 9 10 11 12 13 14 15 16 17 18 19 20 21 22 23 24 25 26 27 28 29 30 31 32 33 34 35 36 37 38 39 40 41 42 43 44 45 46 47 48 49 50
000 ASUS42 KMHX 270225 RWRMHX WEATHER ROUNDUP FOR EASTERN NORTH CAROLINA NATIONAL WEATHER SERVICE NEWPORT/MOREHEAD CITY NC 1000 PM EDT FRI MAY 26 2017 NOTE: "FAIR" INDICATES FEW OR NO CLOUDS BELOW 12,000 FEET WITH NO SIGNIFICANT WEATHER AND/OR OBSTRUCTIONS TO VISIBILITY NCZ015>017-031-032-045>047-102-103-270300- NORTH COAST CITY SKY/WX TMP DP RH WIND PRES REMARKS EDENTON CLEAR 69 62 78 CALM 29.93R ELIZABETH CITY CLEAR 68 62 81 SW5 29.92R KITTY HAWK CLEAR 71 60 68 CALM 29.91R MANTEO CLEAR 73 61 66 CALM 29.93R $$ NCZ045>047-081-094-103-104-270300- CENTRAL COAST CITY SKY/WX TMP DP RH WIND PRES REMARKS FRISCO CLEAR 74 67 78 W8 29.94R $$ NCZ095-097-098-100-101-270300- SOUTHERN COAST CITY SKY/WX TMP DP RH WIND PRES REMARKS BEAUFORT CLEAR 74 69 85 SW12 29.94R CEDAR ISLAND NOT AVBL JACKSONVILLE CLEAR 69 61 75 CALM 29.93R PINEY ISLAND CLEAR N/A N/A N/A S6 29.94R WILMINGTON CLEAR 70 65 84 S5 29.94R $$ NCZ011>013-027>030-043-044-078>080-089-090>093-098-270300- COASTAL PLAIN CITY SKY/WX TMP DP RH WIND PRES REMARKS AHOSKIE NOT AVBL CLINTON CLEAR 69 60 74 CALM 29.95R ELIZABETHTOWN CLEAR 71 59 66 CALM 29.95R GOLDSBORO NOT AVBL GREENVILLE CLEAR 68 61 77 CALM 29.95R HAVELOCK CLEAR 69 57 65 S3 29.95R KENANSVILLE CLEAR 64 61 88 CALM 29.95R KINSTON NOT AVBL NEW BERN CLEAR 66 60 81 CALM 29.94R RICHLANDS CLEAR 66 61 84 CALM 29.95R ROCKY MOUNT CLEAR 65 62 90 CALM 29.93R WASHINGTON CLEAR 67 60 78 CALM 29.94R WHITEVILLE CLEAR 69 60 71 CALM 29.95R $$ AMZ130-135-150-152-154-156-158-170-250-252-270-ANZ085-086-088-633-658-670-270300- MARINE OBSERVATIONS STATION/POSITION TIME TEMP WIND PRES WAVE SWELL AIR SEA DIR/SP/G HT/PER HT/PER (UTC) (F) (DEG/KT/KT) (MB) (FT/S) (FT/S) CHESAPEAKE LIGHT NOT AVBL 64 E VA BEACH 0150 67 63 240/ 8/ 10 1012.6 3/ 8 3/ 8 DUCK 0200 73 63 230/ 5/ 6 1012.6 2 E DUCK 0200 63 N/A 1/ 8 OREGON INLET 0200 71 74 210/ 3/ 4 1013.2 13E OREGON INLT 0148 65 N/A 3/ 8 2/ 8 HATTERAS CG 0200 73 74 230/ 6/ 9 1013.6 DIAMOND BUOY 0150 75 79 260/ 17/ 19 1013.4 6/ 7 CAPE LOOKOUT 0200 73 240/ 11/ 14 1013.8 BEAUFORT LAB 0200 74 71 250/ 5/ 11 1013.3 30 SE NEW RVR IN 0208 75 78 250/ 17/ 21 1014.1 30 SE NEW RVR IN 0213 78 N/A 6/ 7 2/25 27 SE WRIGHTSVLE 0208 74 76 230/ 17/ 21 1013.5 5 SE WRIGHTSVLE 0208 74 74 220/ 10/ 14 1013.9 225 S CAPE HAT 0150 77 77 270/ 16/ 17 1016.4 5/ 7 3/ 7 41 SE CHARLESTON 0210 74 74 230/ 14/ 17 1015.4 $$

USA.gov is the U.S. government's official web portal to all federal, state and local government web resources and services.